| time (UTC) | temp C | wind direction | speed KPH | gust KPH | rain 1hr cm | rain 24hr cm | rain mn cm | humidity % | barometer mb |
| 20260506040853 | 3 | 0 | 0.0 | 0.0 | 0.00 | 0.00 | 0.00 | 50 | 1015.0 |
| 20260506035853 | 3 | 0 | 0.0 | 0.0 | 0.00 | 0.00 | 0.00 | 50 | 1015.0 |
| 20260506034853 | 2 | 360 | 3.2 | 3.2 | 0.00 | 0.00 | 0.00 | 50 | 1015.0 |
| 20260506033823 | 2 | 360 | 3.2 | 3.2 | 0.00 | 0.00 | 0.00 | 50 | 1015.0 |
| 20260506032823 | 2 | 360 | 3.2 | 3.2 | 0.00 | 0.00 | 0.00 | 50 | 1015.0 |
| 20260506031823 | 2 | 0 | 0.0 | 0.0 | 0.00 | 0.00 | 0.00 | 50 | 1015.0 |
| 20260506030823 | 2 | 0 | 0.0 | 0.0 | 0.00 | 0.00 | 0.00 | 50 | 1015.0 |
| 20260506025823 | 2 | 0 | 0.0 | 0.0 | 0.00 | 0.00 | 0.00 | 50 | 1015.0 |
| 20260506024823 | 3 | 80 | 4.8 | 4.8 | 0.00 | 0.00 | 0.00 | 50 | 1015.0 |
| 20260506023823 | 3 | 80 | 4.8 | 4.8 | 0.00 | 0.00 | 0.00 | 50 | 1015.0 |
| 20260506022823 | 3 | 80 | 4.8 | 4.8 | 0.00 | 0.00 | 0.00 | 50 | 1015.0 |
| 20260506021823 | 3 | 80 | 6.4 | 6.4 | 0.00 | 0.00 | 0.00 | 50 | 1015.0 |
| 20260506020823 | 3 | 80 | 6.4 | 6.4 | 0.00 | 0.00 | 0.00 | 50 | 1015.0 |
| 20260506015823 | 3 | 80 | 6.4 | 6.4 | 0.00 | 0.00 | 0.00 | 50 | 1015.0 |
| 20260506014823 | 5 | 0 | 0.0 | 0.0 | 0.00 | 0.00 | 0.00 | 50 | 1015.0 |
| 20260506013823 | 5 | 0 | 0.0 | 0.0 | 0.00 | 0.00 | 0.00 | 50 | 1015.0 |
| 20260506012823 | 5 | 0 | 0.0 | 0.0 | 0.00 | 0.00 | 0.00 | 50 | 1015.0 |
| 20260506011823 | 5 | 0 | 0.0 | 0.0 | 0.00 | 0.00 | 0.00 | 50 | 1015.0 |
| 20260506010823 | 5 | 0 | 0.0 | 0.0 | 0.00 | 0.00 | 0.00 | 50 | 1015.0 |
| 20260506005823 | 5 | 0 | 0.0 | 0.0 | 0.00 | 0.00 | 0.00 | 50 | 1015.0 |
| 20260506004823 | 5 | 0 | 0.0 | 0.0 | 0.00 | 0.00 | 0.00 | 50 | 1015.0 |
| 20260506003823 | 5 | 0 | 0.0 | 0.0 | 0.00 | 0.00 | 0.00 | 50 | 1015.0 |
| 20260506002823 | 5 | 0 | 0.0 | 0.0 | 0.00 | 0.00 | 0.00 | 50 | 1015.0 |
| 20260506001753 | 5 | 0 | 0.0 | 0.0 | 0.00 | 0.00 | 0.00 | 50 | 1015.0 |
| 20260506000753 | 5 | 0 | 0.0 | 0.0 | 0.00 | 0.00 | 0.00 | 50 | 1015.0 |
| 20260505235753 | 5 | 0 | 0.0 | 0.0 | 0.00 | 0.00 | 0.00 | 50 | 1015.0 |
| 20260505234753 | 5 | 280 | 3.2 | 3.2 | 0.00 | 0.00 | 0.00 | 50 | 1015.0 |
| 20260505233753 | 5 | 280 | 3.2 | 3.2 | 0.00 | 0.00 | 0.00 | 50 | 1015.0 |
| 20260505232753 | 5 | 280 | 3.2 | 3.2 | 0.00 | 0.00 | 0.00 | 50 | 1015.0 |
| 20260505231753 | 5 | 0 | 0.0 | 0.0 | 0.00 | 0.00 | 0.00 | 50 | 1015.0 |
| 20260505230753 | 5 | 0 | 0.0 | 0.0 | 0.00 | 0.00 | 0.00 | 50 | 1015.0 |
| 20260505225753 | 5 | 0 | 0.0 | 0.0 | 0.00 | 0.00 | 0.00 | 50 | 1015.0 |
| 20260505224753 | 6 | 260 | 4.8 | 4.8 | 0.00 | 0.00 | 0.00 | 50 | 1015.0 |
| 20260505223753 | 6 | 260 | 4.8 | 4.8 | 0.00 | 0.00 | 0.00 | 50 | 1015.0 |
| 20260505222753 | 6 | 260 | 4.8 | 4.8 | 0.00 | 0.00 | 0.00 | 50 | 1015.0 |
| 20260505221753 | 7 | 0 | 0.0 | 0.0 | 0.00 | 0.00 | 0.00 | 50 | 1015.0 |
| 20260505220753 | 7 | 0 | 0.0 | 0.0 | 0.00 | 0.00 | 0.00 | 50 | 1015.0 |
| 20260505215753 | 8 | 0 | 0.0 | 0.0 | 0.00 | 0.00 | 0.00 | 50 | 1015.0 |
| 20260505214524 | 8 | 0 | 0.0 | 0.0 | 0.00 | 0.00 | 0.00 | 50 | 1015.0 |
| 20260505213524 | 8 | 0 | 0.0 | 0.0 | 0.00 | 0.00 | 0.00 | 50 | 1015.0 |
| 20260505212554 | 2 | 0 | 0.0 | 0.0 | 0.00 | 0.00 | 0.00 | 50 | 1015.0 |